This is the latest recevied weather packets stored in our database for station/object MB7UIK. If no packets are shown the sender has not sent any weather packets the latest 1 day(s).
| Time | Temp. | Humidity | Pressure | Rain* | Wind** | Luminosity | Snow |
|---|---|---|---|---|---|---|---|
| 1778001706 | 15.56° C | 43% | 1010.5 hPa | 0 mm | 1.34 m/s, 5° | - | - |
| 1778001646 | 15.56° C | 43% | 1010.6 hPa | 0 mm | 2.24 m/s, 47° | - | - |
| 1778001585 | 15.56° C | 43% | 1010.6 hPa | 0 mm | 1.79 m/s, 30° | - | - |
| 1778001525 | 15.56° C | 43% | 1010.6 hPa | 0 mm | 2.24 m/s, 42° | - | - |
| 1778001465 | 15.56° C | 43% | 1010.6 hPa | 0 mm | 3.13 m/s, 39° | - | - |
| 1778001433 | 15.56° C | 43% | 1010.6 hPa | 0 mm | 3.13 m/s, 39° | - | - |
| 1778001404 | 15.56° C | 42% | 1010.5 hPa | 0 mm | 1.34 m/s, 360° | - | - |
| 1778001344 | 15.56° C | 42% | 1010.5 hPa | 0 mm | 1.34 m/s, 68° | - | - |
| 1778001284 | 16.11° C | 42% | 1010.5 hPa | 0 mm | 1.34 m/s, 349° | - | - |
| 1778001224 | 15.56° C | 42% | 1010.5 hPa | 0 mm | 0.89 m/s, 13° | - | - |
| 1778001164 | 15.56° C | 43% | 1010.6 hPa | 0 mm | 1.79 m/s, 23° | - | - |
| 1778001132 | 15.56° C | 43% | 1010.6 hPa | 0 mm | 1.79 m/s, 23° | - | - |
| 1778001104 | 15.56° C | 43% | 1010.5 hPa | 0 mm | 1.79 m/s, 360° | - | - |
| 1778001045 | 15.56° C | 43% | 1010.6 hPa | 0 mm | 1.34 m/s, 360° | - | - |
| 1778000985 | 15.56° C | 43% | 1010.5 hPa | 0 mm | 1.34 m/s, 32° | - | - |
| 1778000925 | 15.56° C | 43% | 1010.5 hPa | 0 mm | 1.34 m/s, 38° | - | - |
| 1778000865 | 15.56° C | 43% | 1010.5 hPa | 0 mm | 1.79 m/s, 58° | - | - |
| 1778000833 | 15.56° C | 43% | 1010.5 hPa | 0 mm | 1.79 m/s, 58° | - | - |
| 1778000805 | 15.56° C | 43% | 1010.6 hPa | 0 mm | 1.34 m/s, 41° | - | - |
| 1778000745 | 15.56° C | 43% | 1010.6 hPa | 0 mm | 1.34 m/s, 30° | - | - |
| 1778000684 | 15.56° C | 43% | 1010.5 hPa | 0 mm | 1.34 m/s, 44° | - | - |
| 1778000625 | 15.56° C | 43% | 1010.6 hPa | 0 mm | 1.79 m/s, 11° | - | - |
| 1778000565 | 16.11° C | 43% | 1010.6 hPa | 0 mm | 1.34 m/s, 51° | - | - |
| 1778000531 | 16.11° C | 43% | 1010.6 hPa | 0 mm | 1.34 m/s, 51° | - | - |
| 1778000505 | 16.11° C | 43% | 1010.6 hPa | 0 mm | 4.02 m/s, 64° | - | - |
* Rain latest hour (hover to see other rain measurements)
** Current wind speed in m/s (hover to see current wind gust speed)